Location: Chircca
(13.7944°S, 72.0608°W)
Time: 05:44:36
(UTC+00:00)

CORIOLIS - Pass Details

Date: 14 July 2020
Orbit: 819 x 838 km, 98.7° (Epoch: 14 August)

Event Time Altitude Azimuth Distance (km) Brightness Sun altitude
Rises 10:34:57 0° 17° (NNE) 3,368 7.9 -9.4°
Reaches altitude 10° 10:37:18 10° 19° (NNE) 2,437 7.2 -8.9°
Maximum altitude 10:42:41 74° 103° (ESE) 869 4.5 -7.6°
Drops below altitude 10° 10:48:06 10° 187° (S) 2,447 6.3 -6.4°
Sets 10:50:28 0° 189° (S) 3,383 7.0 -5.9°
